QPF
0.00 0.00 0.00 0.00 0.00 0.00 0.00 0.00 0.00 0.00 0.00 0.00 0.00 0.00 0.00 0.00 0.00 0.00 0.00 0.00 0.00 0.00 0.01 0.01 0.00 0.00 0.00 0.00 0.00 0.01 0.01 0.01 0.01 0.00 0.01 0.01 0.03 0.06
0.00 0.00 0.00 0.00 0.00 0.00 0.00 0.00 0.00 0.00 0.00 0.00 0.00 0.00 0.00 0.00 0.00 0.00 0.00 0.00 0.00 0.00 0.00 0.00 0.01 0.00 0.00 0.01 0.01 0.01 0.01 0.01 0.01 0.01 0.01 0.00 0.00 0.03
0.00 0.00 0.00 0.00 0.00 0.00 0.00 0.00 0.00 0.00 0.00 0.00 0.00 0.00 0.00 0.00 0.00 0.00 0.00 0.00 0.00 0.00 0.00 0.00 0.01 0.00 0.00 0.00 0.00 0.00 0.01 0.01 0.01 0.01 0.01 0.01 0.01 0.01
0.00 0.00 0.00 0.00 0.00 0.00 0.00 0.00 0.00 0.00 0.00 0.00 0.00 0.00 0.00 0.00 0.00 0.00 0.00 0.00 0.00 0.00 0.00 0.00 0.00 0.01 0.00 0.00 0.00 0.00 0.00 0.01 0.01 0.01 0.01 0.01 0.01 0.01
0.00 0.00 0.00 0.00 0.00 0.00 0.00 0.00 0.00 0.00 0.00 0.00 0.00 0.00 0.00 0.00 0.00 0.00 0.00 0.00 0.00 0.00 0.00 0.00 0.00 0.00 0.00 0.00 0.00 0.00 0.00 0.01 0.02 0.01 0.01 0.02 0.02 0.01
0.00 0.00 0.00 0.00 0.00 0.00 0.00 0.00 0.00 0.00 0.00 0.00 0.00 0.00 0.00 0.00 0.00 0.00 0.00 0.00 0.00 0.00 0.00 0.00 0.00 0.00 0.00 0.00 0.00 0.00 0.00 0.00 0.01 0.03 0.03 0.02 0.02 0.04
0.00 0.00 0.00 0.00 0.00 0.00 0.00 0.00 0.00 0.00 0.00 0.00 0.00 0.00 0.00 0.00 0.00 0.00 0.00 0.00 0.00 0.00 0.00 0.00 0.00 0.00 0.00 0.00 0.00 0.00 0.00 0.00 0.00 0.00 0.01 0.03 0.03 0.02
0.00 0.00 0.00 0.00 0.00 0.00 0.00 0.00 0.00 0.00 0.00 0.00 0.00 0.00 0.00 0.00 0.00 0.00 0.00 0.00 0.00 0.00 0.00 0.00 0.00 0.00 0.00 0.00 0.00 0.00 0.00 0.00 0.00 0.00 0.00 0.01 0.02 0.03
0.00 0.00 0.00 0.00 0.00 0.00 0.00 0.00 0.00 0.00 0.00 0.00 0.00 0.00 0.00 0.00 0.00 0.00 0.00 0.00 0.00 0.00 0.00 0.00 0.00 0.00 0.00 0.00 0.00 0.00 0.00 0.00 0.00 0.00 0.00 0.00 0.00 0.01
0.00 0.00 0.00 0.00 0.00 0.00 0.00 0.00 0.00 0.00 0.00 0.00 0.00 0.00 0.00 0.00 0.00 0.00 0.00 0.00 0.00 0.00 0.00 0.00 0.00 0.00 0.00 0.00 0.00 0.00 0.00 0.00 0.00 0.00 0.00 0.01 0.00 0.00
0.00 0.00 0.00 0.00 0.00 0.00 0.00 0.00 0.00 0.00 0.00 0.00 0.00 0.00 0.00 0.00 0.00 0.00 0.00 0.00 0.00 0.00 0.00 0.00 0.00 0.00 0.00 0.00 0.00 0.00 0.00 0.00 0.00 0.00 0.00 0.00 0.00 0.00
0.00 0.00 0.00 0.00 0.00 0.00 0.00 0.00 0.00 0.00 0.00 0.00 0.00 0.00 0.00 0.00 0.00 0.00 0.00 0.00 0.00 0.00 0.00 0.00 0.00 0.00 0.00 0.00 0.00 0.00 0.00 0.00 0.00 0.00 0.00 0.00 0.00 0.00
0.00 0.00 0.00 0.00 0.00 0.00 0.00 0.00 0.00 0.00 0.00 0.00 0.00 0.00 0.00 0.00 0.00 0.00 0.00 0.00 0.00 0.00 0.00 0.00 0.00 0.00 0.00 0.00 0.00 0.00 0.00 0.00 0.00 0.00 0.00 0.00 0.00 0.00
0.00 0.00 0.00 0.00 0.00 0.00 0.00 0.00 0.00 0.00 0.00 0.00 0.00 0.00 0.00 0.00 0.00 0.00 0.00 0.00 0.00 0.00 0.00 0.00 0.00 0.00 0.00 0.00 0.00 0.00 0.00 0.00 0.00 0.00 0.00 0.00 0.00 0.00
0.00 0.00 0.00 0.00 0.00 0.00 0.00 0.00 0.00 0.00 0.00 0.00 0.00 0.00 0.00 0.00 0.00 0.00 0.00 0.00 0.00 0.00 0.00 0.00 0.00 0.00 0.00 0.00 0.00 0.00 0.00 0.00 0.00 0.00 0.00 0.00 0.00 0.00
0.00 0.00 0.00 0.00 0.00 0.00 0.00 0.00 0.00 0.00 0.00 0.00 0.00 0.00 0.00 0.00 0.00 0.00 0.00 0.00 0.00 0.00 0.00 0.00 0.00 0.00 0.00 0.00 0.00 0.00 0.00 0.00 0.00 0.00 0.00 0.00 0.00 0.00
0.00 0.00 0.00 0.00 0.00 0.00 0.00 0.00 0.00 0.00 0.00 0.00 0.00 0.00 0.00 0.00 0.00 0.00 0.00 0.00 0.00 0.00 0.00 0.00 0.00 0.00 0.00 0.00 0.00 0.00 0.00 0.00 0.00 0.00 0.00 0.00 0.00 0.00
0.00 0.00 0.00 0.00 0.00 0.00 0.00 0.00 0.00 0.00 0.00 0.00 0.00 0.00 0.00 0.00 0.00 0.00 0.00 0.00 0.00 0.00 0.00 0.00 0.00 0.00 0.00 0.00 0.00 0.00 0.00 0.00 0.00 0.00 0.00 0.00 0.00 0.00
0.00 0.00 0.00 0.00 0.00 0.00 0.00 0.00 0.00 0.00 0.00 0.00 0.00 0.00 0.00 0.00 0.00 0.00 0.00 0.00 0.00 0.00 0.00 0.00 0.00 0.00 0.00 0.00 0.00 0.00 0.00 0.00 0.00 0.00 0.00 0.00 0.00 0.00
0.00 0.00 0.01 0.01 0.01 0.00 0.00 0.00 0.00 0.00 0.00 0.00 0.00 0.00 0.00 0.00 0.00 0.00 0.00 0.00 0.00 0.00 0.00 0.00 0.00 0.00 0.00 0.00 0.01 0.00 0.00 0.00 0.00 0.00 0.00 0.00 0.00 0.00
0.01 0.01 0.00 0.01 0.01 0.01 0.00 0.00 0.00 0.00 0.00 0.01 0.00 0.00 0.00 0.01 0.01 0.01 0.00 0.01 0.00 0.00 0.00 0.00 0.00 0.00 0.00 0.00 0.01 0.00 0.00 0.00 0.00 0.00 0.00 0.01 0.01 0.00
0.01 0.01 0.01 0.01 0.01 0.01 0.01 0.01 0.01 0.01 0.01 0.00 0.01 0.01 0.01 0.01 0.01 0.01 0.01 0.01 0.00 0.00 0.00 0.00 0.00 0.00 0.00 0.00 0.00 0.00 0.00 0.00 0.00 0.00 0.00 0.00 0.01 0.01
0.01 0.01 0.01 0.01 0.01 0.01 0.01 0.01 0.01 0.01 0.01 0.01 0.01 0.01 0.01 0.01 0.01 0.01 0.01 0.01 0.00 0.00 0.00 0.00 0.00 0.00 0.00 0.00 0.00 0.00 0.00 0.00 0.00 0.00 0.00 0.00 0.00 0.00
MSLP
1023.28 1023.05 1022.91 1022.95 1022.90 1022.80 1022.84 1022.68 1022.19 1021.02 1019.60 1019.91 1019.98 1020.38 1020.25 1019.98 1019.99 1019.48 1020.07 1020.46 1020.51 1019.93 1019.38 1018.80 1018.53 1018.22 1017.61 1016.89 1016.17 1015.46 1014.71 1013.89 1013.09 1012.17 1011.34 1010.42 1009.64 1008.72
1023.55 1023.58 1023.39 1023.18 1023.02 1023.02 1022.93 1022.75 1022.51 1022.32 1021.42 1020.93 1020.51 1020.77 1020.63 1020.49 1020.06 1019.85 1019.82 1020.05 1020.46 1020.05 1019.81 1019.34 1019.00 1018.76 1018.28 1017.56 1017.09 1016.35 1015.57 1014.83 1014.00 1013.12 1012.13 1011.12 1010.06 1009.46
1023.93 1023.96 1023.83 1023.60 1023.39 1023.35 1023.20 1023.00 1022.89 1022.76 1022.19 1021.45 1020.92 1020.90 1020.88 1020.92 1020.44 1020.06 1019.67 1019.36 1019.32 1020.08 1019.87 1019.64 1019.36 1019.07 1018.75 1018.25 1017.54 1017.01 1016.37 1015.74 1014.89 1014.13 1013.17 1011.95 1010.87 1010.04
1024.34 1024.36 1024.33 1023.97 1023.87 1023.83 1023.62 1023.46 1023.32 1022.90 1022.68 1021.95 1021.34 1021.20 1021.32 1021.35 1020.76 1020.20 1019.69 1019.37 1019.41 1019.99 1019.82 1019.83 1019.70 1019.39 1019.00 1018.85 1018.34 1017.80 1017.15 1016.44 1015.62 1014.96 1013.94 1012.97 1011.93 1011.10
1024.95 1025.03 1025.16 1025.09 1024.89 1024.63 1024.16 1024.02 1023.70 1023.05 1022.73 1022.26 1021.81 1021.66 1021.87 1021.93 1021.23 1020.59 1020.00 1019.59 1019.46 1019.88 1019.85 1019.58 1019.50 1019.31 1019.12 1018.99 1018.63 1018.12 1017.44 1016.96 1016.15 1015.54 1014.72 1013.86 1013.00 1011.98
1025.62 1025.87 1026.15 1026.42 1026.45 1026.12 1025.15 1025.03 1024.55 1023.60 1023.06 1022.65 1022.45 1022.34 1022.50 1022.65 1022.19 1021.44 1020.64 1020.15 1019.59 1020.20 1020.17 1019.58 1019.54 1019.07 1018.82 1018.70 1018.63 1018.36 1018.00 1017.33 1016.67 1016.04 1015.34 1014.69 1013.93 1012.96
1026.00 1026.18 1027.00 1027.43 1027.77 1027.72 1027.02 1026.71 1026.10 1025.10 1024.35 1023.75 1023.45 1023.43 1023.47 1023.58 1023.18 1022.45 1021.66 1020.95 1019.96 1020.59 1020.63 1019.27 1019.55 1019.05 1018.54 1018.41 1018.90 1018.75 1018.37 1017.95 1017.47 1016.63 1015.89 1015.13 1014.58 1013.71
1026.61 1026.52 1026.66 1027.35 1027.37 1027.91 1027.97 1028.02 1027.86 1027.30 1026.40 1025.58 1025.06 1025.18 1025.11 1025.28 1024.61 1023.50 1022.58 1021.70 1020.90 1021.12 1021.29 1019.93 1020.22 1019.77 1019.43 1019.00 1019.32 1019.02 1018.75 1018.35 1017.81 1017.23 1016.51 1015.80 1015.22 1014.57
1027.47 1027.35 1027.38 1027.66 1027.93 1027.67 1027.61 1027.61 1027.89 1028.10 1028.12 1027.11 1026.83 1027.00 1026.80 1026.79 1025.96 1024.60 1023.57 1022.70 1022.04 1022.26 1022.29 1021.07 1020.99 1020.49 1020.30 1019.04 1019.49 1019.38 1019.05 1018.55 1018.00 1017.49 1017.04 1016.42 1015.82 1014.56
1027.83 1027.98 1027.93 1028.02 1028.48 1028.42 1028.04 1027.85 1027.83 1027.96 1028.42 1028.07 1027.85 1028.16 1028.11 1027.75 1027.04 1025.56 1024.50 1023.44 1022.79 1022.88 1023.43 1022.47 1021.61 1021.12 1020.59 1019.73 1019.68 1019.54 1019.29 1018.75 1018.15 1017.77 1017.26 1016.63 1016.28 1015.17
1028.09 1028.37 1028.19 1028.25 1028.71 1028.65 1028.07 1027.98 1027.98 1028.10 1028.23 1028.48 1028.48 1028.34 1027.98 1027.75 1027.39 1026.11 1025.40 1024.30 1023.68 1023.43 1024.67 1024.13 1022.69 1021.61 1020.73 1019.80 1020.18 1019.64 1019.39 1019.03 1018.64 1018.15 1017.57 1017.09 1016.22 1015.30
1027.09 1027.88 1028.72 1028.53 1028.81 1028.76 1028.17 1027.96 1028.06 1028.33 1028.10 1027.85 1027.64 1027.48 1027.31 1027.06 1027.14 1026.81 1026.39 1025.65 1025.00 1024.30 1025.28 1025.03 1023.95 1022.97 1021.39 1020.40 1020.59 1019.84 1019.43 1019.04 1018.80 1018.27 1017.75 1017.03 1016.25 1015.52
1026.59 1026.99 1027.88 1028.98 1029.00 1028.99 1028.81 1028.57 1028.98 1028.95 1027.85 1027.42 1027.16 1027.13 1027.14 1027.14 1027.06 1027.07 1026.94 1026.52 1026.04 1025.77 1025.86 1025.82 1024.97 1024.05 1023.39 1022.03 1020.87 1020.13 1019.88 1019.08 1018.92 1018.62 1018.14 1017.65 1016.91 1016.17
1026.77 1027.37 1028.33 1029.10 1029.27 1029.28 1028.78 1029.37 1029.18 1028.55 1027.62 1027.37 1027.17 1027.07 1027.17 1027.18 1027.20 1027.12 1026.87 1026.55 1026.31 1026.45 1025.95 1025.90 1025.31 1024.57 1023.85 1022.60 1021.25 1020.51 1020.04 1019.27 1019.01 1018.95 1018.45 1018.17 1017.54 1016.82
1026.99 1028.29 1028.70 1029.18 1029.28 1029.39 1029.39 1029.28 1028.91 1027.98 1027.76 1027.44 1027.25 1027.17 1027.29 1027.25 1026.96 1026.78 1026.47 1026.08 1025.59 1025.48 1025.35 1025.30 1025.09 1024.58 1023.95 1022.95 1021.92 1021.12 1019.99 1019.49 1019.12 1019.09 1018.63 1018.29 1017.38 1016.64
1027.99 1028.28 1028.52 1028.72 1028.93 1028.81 1028.97 1028.73 1028.08 1028.11 1028.18 1027.61 1027.36 1027.24 1027.08 1026.99 1026.77 1026.66 1026.43 1026.06 1025.55 1025.06 1024.89 1024.74 1024.55 1024.28 1023.61 1023.07 1022.50 1021.45 1020.80 1020.42 1019.72 1019.54 1019.00 1018.36 1017.53 1016.91
1027.37 1027.64 1028.04 1027.85 1027.59 1027.59 1027.57 1027.67 1027.73 1027.71 1027.64 1027.49 1027.35 1027.14 1027.06 1026.98 1026.77 1026.76 1026.34 1025.99 1025.56 1025.08 1024.71 1024.49 1024.31 1023.95 1023.47 1023.06 1022.45 1022.00 1021.58 1020.89 1020.58 1019.80 1019.09 1018.24 1017.53 1016.98
1026.92 1026.75 1026.65 1026.59 1026.61 1026.60 1026.63 1026.68 1026.91 1027.41 1027.39 1027.41 1027.33 1027.19 1027.09 1027.00 1026.85 1026.85 1026.34 1026.00 1025.61 1025.19 1024.80 1024.58 1024.27 1023.57 1023.05 1022.65 1022.94 1022.50 1022.09 1021.43 1020.82 1020.05 1019.50 1018.52 1017.58 1017.25
1026.40 1025.93 1025.82 1025.77 1025.81 1025.94 1026.04 1026.19 1026.38 1026.69 1027.27 1027.54 1027.25 1027.10 1027.05 1026.96 1026.95 1026.51 1026.17 1025.84 1025.49 1025.17 1024.79 1024.54 1024.20 1023.55 1022.96 1022.69 1023.00 1023.13 1022.33 1021.50 1020.65 1020.25 1019.84 1019.07 1018.31 1017.42
1025.54 1025.31 1025.09 1025.06 1025.16 1025.38 1025.57 1025.73 1025.95 1026.28 1026.64 1026.82 1026.74 1026.73 1026.74 1026.79 1026.57 1026.24 1025.95 1025.75 1025.41 1025.07 1024.61 1024.19 1023.74 1023.61 1023.57 1023.33 1022.76 1022.47 1021.94 1021.16 1020.86 1020.28 1019.60 1019.13 1018.46 1017.51
1024.28 1024.42 1024.43 1024.44 1024.54 1024.76 1024.99 1025.31 1025.53 1025.74 1025.94 1026.11 1026.17 1026.31 1026.35 1026.24 1025.98 1025.78 1025.52 1025.37 1025.16 1024.68 1024.07 1023.74 1023.61 1023.80 1023.41 1022.91 1022.27 1021.62 1021.25 1021.18 1020.77 1020.34 1019.67 1018.78 1017.79 1016.91
1022.86 1022.98 1023.23 1023.50 1023.76 1024.02 1024.32 1024.60 1025.02 1025.27 1025.47 1025.67 1025.75 1025.72 1025.64 1025.56 1025.37 1025.27 1025.14 1024.93 1024.65 1024.29 1023.90 1023.59 1023.25 1023.00 1022.69 1022.27 1021.67 1021.21 1020.80 1020.46 1020.35 1019.81 1019.37 1018.68 1018.01 1016.94
1021.84 1021.89 1022.08 1022.41 1022.80 1023.14 1023.57 1023.93 1024.28 1024.53 1024.67 1024.78 1024.87 1024.93 1025.02 1025.02 1024.99 1024.90 1024.78 1024.50 1024.11 1023.72 1023.49 1023.10 1022.84 1022.56 1022.29 1022.06 1021.58 1020.98 1020.49 1020.08 1019.58 1019.14 1018.62 1018.39 1017.93 1017.23
Thickness
5393 5390 5387 5383 5380 5377 5373 5370 5371 5379 5395 5391 5391 5389 5392 5396 5400 5406 5404 5403 5407 5415 5423 5431 5437 5444 5454 5465 5475 5486 5498 5511 5524 5537 5551 5563 5573 5584
5389 5384 5381 5379 5377 5374 5371 5370 5369 5368 5373 5379 5382 5379 5380 5382 5387 5391 5393 5393 5393 5399 5405 5412 5418 5424 5431 5442 5451 5463 5475 5486 5499 5514 5529 5543 5556 5564
5384 5381 5378 5377 5375 5372 5370 5368 5367 5365 5367 5373 5377 5376 5376 5375 5378 5380 5383 5386 5388 5385 5388 5394 5399 5404 5411 5420 5430 5440 5451 5462 5474 5488 5504 5520 5534 5545
5380 5377 5374 5375 5372 5370 5368 5366 5365 5366 5365 5368 5373 5373 5371 5370 5373 5375 5378 5379 5378 5375 5376 5376 5379 5384 5392 5398 5407 5416 5427 5438 5451 5463 5479 5496 5508 5521
5373 5370 5366 5364 5364 5363 5364 5362 5362 5365 5366 5367 5369 5368 5365 5363 5368 5371 5373 5374 5372 5368 5368 5370 5370 5371 5374 5379 5386 5395 5406 5417 5430 5440 5455 5469 5483 5497
5365 5360 5356 5352 5350 5351 5356 5353 5354 5359 5361 5363 5363 5362 5358 5355 5357 5360 5365 5366 5368 5360 5358 5361 5360 5363 5365 5366 5370 5376 5383 5395 5407 5419 5431 5443 5457 5471
5358 5354 5347 5342 5338 5336 5339 5339 5340 5345 5350 5352 5352 5351 5348 5344 5344 5348 5351 5355 5362 5354 5351 5358 5354 5355 5358 5359 5355 5357 5362 5370 5380 5394 5406 5420 5432 5446
5350 5349 5344 5338 5336 5332 5329 5326 5325 5326 5331 5335 5336 5331 5330 5325 5329 5335 5339 5343 5346 5341 5339 5348 5342 5343 5344 5346 5343 5346 5347 5351 5358 5368 5381 5394 5406 5419
5340 5339 5337 5333 5329 5329 5327 5324 5320 5317 5314 5318 5317 5312 5312 5308 5312 5319 5325 5330 5333 5328 5324 5333 5331 5332 5331 5337 5334 5333 5335 5339 5344 5349 5357 5368 5380 5397
5334 5331 5330 5327 5322 5321 5320 5319 5316 5313 5308 5308 5306 5301 5298 5297 5299 5305 5310 5315 5319 5317 5310 5314 5318 5320 5321 5325 5324 5324 5325 5327 5332 5335 5340 5348 5356 5371
5327 5324 5322 5321 5316 5315 5316 5313 5311 5307 5303 5300 5297 5295 5293 5291 5289 5294 5295 5303 5304 5307 5292 5295 5303 5306 5311 5316 5310 5313 5314 5316 5318 5322 5327 5332 5340 5351
5328 5319 5313 5312 5309 5307 5309 5308 5305 5298 5296 5295 5293 5291 5289 5287 5284 5283 5282 5284 5288 5293 5280 5279 5283 5289 5297 5300 5296 5300 5301 5304 5306 5310 5314 5320 5327 5334
5326 5321 5311 5302 5300 5298 5296 5295 5289 5285 5289 5288 5287 5283 5279 5275 5273 5270 5269 5269 5270 5270 5266 5263 5265 5269 5270 5279 5284 5286 5286 5290 5291 5294 5298 5302 5307 5313
5316 5310 5301 5294 5290 5287 5287 5281 5279 5278 5280 5279 5276 5273 5268 5265 5261 5259 5257 5256 5255 5251 5252 5250 5251 5253 5255 5262 5270 5273 5273 5276 5277 5277 5280 5283 5288 5293
5304 5295 5290 5285 5282 5278 5276 5273 5271 5272 5270 5269 5266 5263 5257 5253 5251 5249 5247 5246 5246 5245 5242 5239 5237 5238 5240 5245 5251 5253 5261 5262 5262 5261 5265 5266 5274 5280
5290 5286 5282 5278 5274 5272 5268 5265 5265 5262 5258 5258 5255 5251 5247 5244 5241 5238 5235 5234 5233 5232 5229 5227 5224 5223 5224 5226 5228 5235 5237 5237 5244 5243 5245 5249 5255 5259
5284 5280 5276 5275 5274 5271 5267 5262 5257 5254 5251 5247 5244 5241 5237 5232 5229 5224 5223 5220 5219 5218 5216 5212 5209 5207 5206 5205 5207 5208 5210 5214 5214 5220 5226 5233 5236 5240
5277 5277 5277 5274 5270 5266 5263 5258 5253 5244 5241 5236 5232 5228 5224 5219 5215 5209 5208 5206 5203 5201 5199 5195 5192 5193 5191 5187 5180 5180 5180 5184 5189 5195 5198 5207 5217 5217
5270 5273 5271 5268 5264 5259 5254 5248 5243 5237 5228 5221 5219 5215 5210 5205 5199 5197 5194 5191 5188 5184 5181 5176 5171 5171 5170 5167 5161 5152 5156 5160 5166 5168 5169 5177 5185 5194
5265 5264 5263 5260 5255 5249 5243 5238 5233 5226 5219 5213 5208 5203 5197 5191 5186 5183 5179 5174 5170 5166 5162 5158 5155 5152 5146 5144 5146 5144 5140 5144 5144 5147 5151 5153 5157 5166
5262 5258 5254 5250 5246 5241 5234 5228 5222 5215 5210 5203 5198 5191 5184 5179 5174 5169 5164 5158 5152 5150 5148 5145 5140 5133 5131 5130 5131 5133 5130 5124 5124 5126 5129 5135 5142 5150
5260 5256 5251 5245 5238 5231 5225 5218 5210 5204 5198 5190 5184 5178 5172 5166 5160 5155 5149 5143 5139 5136 5133 5129 5125 5121 5118 5116 5117 5116 5114 5111 5106 5107 5107 5109 5115 5125
5253 5250 5244 5237 5230 5224 5216 5208 5200 5193 5187 5180 5174 5167 5159 5152 5145 5139 5133 5129 5126 5123 5118 5115 5111 5107 5103 5098 5097 5096 5094 5092 5091 5091 5091 5086 5088 5093